GW2260 Weather Reports


Display with metric or nautical units.
time (UTC)temp
F
wind
direction
speed
MPH
gust
MPH
rain 1hr
in
rain 24hr
in
rain mn
in
humidity
%
barometer
mb
20260901031616 70 225 2.0 4.0 0.00 0.00 0.00 86 1017.2
20260901030616 70 204 1.0 2.0 0.00 0.00 0.00 88 1017.0
20260901025615 70 237 2.0 3.0 0.00 0.00 0.00 88 1017.0
20260901024616 70 208 0.0 2.0 0.00 0.00 0.00 88 1016.9
20260901023616 70 209 2.0 4.0 0.00 0.00 0.00 87 1017.0
20260901022635 71 261 0.0 4.0 0.00 0.00 0.00 87 1017.0
20260901021615 72 207 3.0 6.0 0.00 0.00 0.00 86 1017.0
20260901020655 72 209 3.0 5.0 0.00 0.00 0.00 87 1017.0
20260901015616 71 210 1.0 3.0 0.00 0.00 0.00 89 1016.9
20260901014616 71 224 2.0 3.0 0.00 0.00 0.00 89 1016.9
20260901013615 70 198 2.0 3.0 0.00 0.00 0.00 90 1016.9
20260901012615 70 152 2.0 4.0 0.00 0.00 0.00 89 1017.0
20260901011635 71 226 2.0 4.0 0.00 0.00 0.00 87 1017.1
20260901010616 72 217 1.0 1.0 0.00 0.00 0.00 84 1017.1
20260901005615 72 237 1.0 2.0 0.00 0.00 0.00 84 1017.2
20260901004615 73 235 1.0 4.0 0.00 0.00 0.00 84 1017.3
20260901003615 73 213 3.0 5.0 0.00 0.00 0.00 84 1017.2
20260901002615 73 243 2.0 6.0 0.00 0.00 0.00 84 1017.2
20260901001615 74 213 5.0 8.0 0.00 0.00 0.00 81 1017.2
20260901000615 75 227 3.0 6.0 0.00 0.00 0.00 82 1017.1
20260831235616 75 268 2.0 5.0 0.00 0.00 0.00 82 1017.2
20260831234615 75 224 3.0 7.0 0.00 0.00 0.00 81 1017.5
20260831233616 75 238 3.0 8.0 0.00 0.00 0.00 83 1017.4
20260831232615 75 218 4.0 9.0 0.00 0.00 0.00 80 1017.6
20260831231615 75 230 3.0 6.0 0.00 0.00 0.00 82 1017.6
20260831230615 75 213 4.0 7.0 0.00 0.00 0.00 78 1017.7
20260831225616 74 223 2.0 5.0 0.00 0.00 0.00 79 1017.8
20260831224616 74 244 1.0 2.0 0.00 0.00 0.00 76 1017.8
20260831223615 75 241 3.0 4.0 0.00 0.00 0.00 76 1018.1
20260831222616 75 215 3.0 6.0 0.00 0.00 0.00 73 1018.2
20260831221615 76 219 2.0 4.0 0.00 0.00 0.00 76 1018.4
20260831220615 76 246 2.0 6.0 0.00 0.00 0.00 76 1018.4
20260831215616 75 192 3.0 5.0 0.00 0.00 0.00 80 1018.4
20260831214616 74 288 2.0 4.0 0.00 0.00 0.00 80 1018.7
20260831213616 74 187 3.0 5.0 0.00 0.00 0.00 78 1018.8
20260831212656 73 237 3.0 5.0 0.00 0.00 0.00 81 1018.9
20260831211615 72 209 3.0 5.0 0.00 0.00 0.00 85 1019.0
20260831210616 71 226 2.0 4.0 0.00 0.00 0.00 83 1019.0
20260831205616 71 218 3.0 4.0 0.00 0.00 0.00 84 1019.0
20260831204615 71 246 1.0 3.0 0.00 0.00 0.00 83 1019.3
20260831203635 71 215 0.0 1.0 0.00 0.00 0.00 85 1019.4
20260831202615 71 217 1.0 2.0 0.00 0.00 0.00 82 1019.4
20260831201635 71 303 0.0 3.0 0.00 0.00 0.00 82 1019.4
20260831200615 71 73 0.0 1.0 0.00 0.00 0.00 80 1019.3
20260831195616 71 288 1.0 1.0 0.00 0.00 0.00 83 1019.4
20260831194635 70 277 1.0 3.0 0.00 0.00 0.00 82 1019.4
20260831193635 69 198 1.0 2.0 0.00 0.00 0.00 86 1019.4
20260831192615 68 321 1.0 2.0 0.00 0.00 0.00 84 1019.4
20260831191615 68 299 0.0 3.0 0.00 0.00 0.00 89 1019.6
20260831190635 67 312 1.0 2.0 0.00 0.00 0.00 92 1019.4
20260831185618 67 297 0.0 2.0 0.00 0.00 0.00 91 1019.2
20260831184638 66 301 1.0 3.0 0.00 0.00 0.00 91 1019.2
20260831183618 66 358 1.0 3.0 0.00 0.00 0.00 91 1019.2
20260831182618 66 18 1.0 2.0 0.00 0.00 0.00 90 1019.0
20260831181618 67 354 1.0 2.0 0.00 0.00 0.00 90 1018.8
20260831180618 65 212 1.0 2.0 0.00 0.00 0.00 90 1018.7
20260831175618 64 186 1.0 2.0 0.00 0.00 0.00 90 1018.5
20260831174618 64 133 1.0 2.0 0.00 0.00 0.00 87 1018.4
20260831173618 63 131 0.0 1.0 0.00 0.00 0.00 88 1018.3
20260831172618 63 97 0.0 3.0 0.00 0.00 0.00 89 1018.2
20260831171618 62 122 1.0 2.0 0.00 0.00 0.00 89 1018.1
20260831170618 61 112 2.0 3.0 0.00 0.00 0.00 88 1017.9
20260831165618 61 123 2.0 4.0 0.00 0.00 0.00 88 1017.8
20260831164618 60 104 2.0 3.0 0.00 0.00 0.00 90 1018.0
20260831163638 60 104 1.0 2.0 0.00 0.00 0.00 87 1018.0
20260831162638 61 108 2.0 3.0 0.00 0.00 0.00 84 1017.8
20260831161618 61 110 2.0 3.0 0.00 0.00 0.00 87 1017.8
20260831160618 61 92 2.0 3.0 0.00 0.00 0.00 85 1017.9
20260831155636 61 103 2.0 3.0 0.00 0.00 0.00 86 1017.7
20260831154615 61 101 1.0 2.0 0.00 0.00 0.00 86 1017.6
20260831153615 62 87 1.0 3.0 0.00 0.00 0.00 88 1017.6
20260831152615 62 109 1.0 4.0 0.00 0.00 0.00 89 1017.4
20260831151616 61 105 2.0 4.0 0.00 0.00 0.00 88 1017.5
20260831150615 61 103 2.0 4.0 0.00 0.00 0.00 88 1017.5
20260831145616 62 109 2.0 3.0 0.00 0.00 0.00 86 1017.5
20260831144616 62 76 1.0 2.0 0.00 0.00 0.00 88 1017.4
20260831143615 63 118 1.0 3.0 0.00 0.00 0.00 90 1017.3
20260831142615 63 170 0.0 2.0 0.00 0.00 0.00 91 1017.3
20260831141616 62 94 1.0 3.0 0.00 0.00 0.00 90 1017.2
20260831140636 62 124 1.0 2.0 0.00 0.00 0.00 91 1017.2
20260831135616 62 168 2.0 5.0 0.00 0.00 0.00 92 1017.2
20260831134615 62 0.0 0.0 0.00 0.00 0.00 92 1017.5
20260831133636 62 134 0.0 1.0 0.00 0.00 0.00 93 1017.5
20260831132616 61 99 1.0 1.0 0.00 0.00 0.00 92 1017.5
20260831131615 61 136 2.0 3.0 0.00 0.00 0.00 90 1017.6
20260831130615 61 113 1.0 2.0 0.00 0.00 0.00 89 1017.7
20260831125616 61 118 1.0 2.0 0.00 0.00 0.00 89 1017.6
20260831124615 61 109 1.0 2.0 0.00 0.00 0.00 88 1017.8
20260831123615 61 94 1.0 2.0 0.00 0.00 0.00 88 1018.0
20260831122615 61 107 0.0 2.0 0.00 0.00 0.00 88 1018.3
20260831121635 62 126 1.0 2.0 0.00 0.00 0.00 88 1018.3
20260831120615 62 151 1.0 2.0 0.00 0.00 0.00 89 1018.3
20260831115615 61 112 1.0 2.0 0.00 0.00 0.00 89 1018.4
20260831114635 62 123 1.0 3.0 0.00 0.00 0.00 88 1018.5
20260831113615 62 105 1.0 3.0 0.00 0.00 0.00 89 1018.6
20260831112615 63 13 0.0 1.0 0.00 0.00 0.00 88 1018.8
20260831111615 63 116 1.0 2.0 0.00 0.00 0.00 88 1018.9
20260831110615 64 102 1.0 3.0 0.00 0.00 0.00 87 1019.0
20260831105615 64 127 1.0 2.0 0.00 0.00 0.00 88 1019.1
20260831104615 64 121 1.0 2.0 0.00 0.00 0.00 87 1019.3
20260831103615 63 111 0.0 1.0 0.00 0.00 0.00 88 1019.5
20260831102655 63 107 1.0 2.0 0.00 0.00 0.00 88 1019.5
20260831101615 63 118 1.0 3.0 0.00 0.00 0.00 89 1019.5
20260831100615 62 123 1.0 2.0 0.00 0.00 0.00 90 1019.7
20260831095635 62 116 1.0 2.0 0.00 0.00 0.00 89 1019.6
20260831094615 63 121 1.0 2.0 0.00 0.00 0.00 91 1019.8
20260831093615 63 152 1.0 1.0 0.00 0.00 0.00 89 1019.8
20260831092635 64 102 2.0 3.0 0.00 0.00 0.00 87 1019.7
20260831091615 64 114 2.0 3.0 0.00 0.00 0.00 88 1019.7
20260831090615 64 118 1.0 2.0 0.00 0.00 0.00 87 1019.7
20260831085615 65 104 1.0 2.0 0.00 0.00 0.00 87 1019.8
20260831084655 65 135 0.0 4.0 0.00 0.00 0.00 88 1019.8
20260831083615 65 112 0.0 2.0 0.00 0.00 0.00 88 1019.9
20260831082635 65 124 0.0 1.0 0.00 0.00 0.00 89 1019.9
20260831081615 65 106 0.0 1.0 0.00 0.00 0.00 90 1019.9
20260831080636 65 102 0.0 1.0 0.00 0.00 0.00 89 1019.9
20260831075615 65 0.0 0.0 0.00 0.00 0.00 91 1019.9
20260831074615 66 0.0 0.0 0.00 0.00 0.00 94 1019.9
20260831073615 66 0.0 0.0 0.00 0.00 0.00 94 1019.9
20260831072615 66 0.0 1.0 0.00 0.00 0.00 94 1019.9
20260831071615 66 89 0.0 1.0 0.00 0.00 0.00 93 1019.9
20260831070615 66 89 0.0 1.0 0.00 0.00 0.00 93 1019.9
20260831065615 66 0.0 0.0 0.00 0.00 0.00 93 1019.7
20260831064615 66 0.0 1.0 0.00 0.00 0.00 94 1019.6
20260831063615 66 0.0 0.0 0.00 0.00 0.00 94 1019.5
20260831062615 67 0.0 0.0 0.00 0.00 0.00 94 1019.4
20260831061615 67 0.0 0.0 0.00 0.00 0.00 93 1019.4
20260831060615 67 32 0.0 1.0 0.00 0.00 0.00 93 1019.4
20260831055615 67 29 0.0 1.0 0.00 0.00 0.00 93 1019.4
20260831054616 67 29 0.0 1.0 0.00 0.00 0.00 93 1019.2
20260831053615 67 0.0 0.0 0.00 0.00 0.00 92 1019.2
20260831052615 67 0.0 0.0 0.00 0.00 0.00 92 1019.0
20260831051635 67 57 0.0 1.0 0.00 0.00 0.00 91 1018.7
20260831050615 67 0.0 0.0 0.00 0.00 0.00 91 1018.6
20260831045615 68 205 0.0 1.0 0.00 0.00 0.00 92 1018.6
20260831044615 68 202 2.0 3.0 0.00 0.00 0.00 91 1018.6
20260831043635 69 213 1.0 3.0 0.00 0.00 0.00 90 1018.4
20260831042635 69 224 2.0 3.0 0.00 0.00 0.00 91 1018.3
20260831040615 69 210 3.0 5.0 0.00 0.00 0.00 92 1018.2
20260831035615 69 236 1.0 3.0 0.00 0.00 0.00 91 1018.3
20260831034635 70 203 2.0 4.0 0.00 0.00 0.00 91 1018.3
20260831033615 70 234 2.0 6.0 0.00 0.00 0.00 90 1018.3
20260831032615 71 199 3.0 5.0 0.00 0.00 0.00 88 1018.2